Time,TemperatureF,DewpointF,PressureIn,WindDirection,WindDirectionDegrees,WindSpeedMPH,WindSpeedGustMPH,Humidity,HourlyPrecipIn,Conditions,Clouds,dailyrainin,SoftwareType,DateUTC
2013-12-03 00:04:00,37.0,19.1,29.62,North,0,0.0,0.0,48,0.00,RA,OVC,0.00,WeatherDisplay:10.37,2013-12-03 06:04:00,
2013-12-03 00:09:00,36.9,19.0,29.62,North,0,0.0,0.0,48,0.00,RA,OVC,0.00,WeatherDisplay:10.37,2013-12-03 06:09:00,
2013-12-03 00:14:00,36.9,19.0,29.62,North,0,0.0,0.0,48,0.00,FEW,OVC,0.00,WeatherDisplay:10.37,2013-12-03 06:14:00,
2013-12-03 00:19:00,36.9,19.0,29.62,North,0,0.0,0.0,48,0.00,FEW,OVC,0.00,WeatherDisplay:10.37,2013-12-03 06:19:00,
2013-12-03 00:24:00,36.9,19.5,29.62,North,0,0.0,0.0,49,0.00,FEW,OVC,0.00,WeatherDisplay:10.37,2013-12-03 06:24:00,
2013-12-03 00:29:00,36.7,19.3,29.62,North,0,0.0,0.0,49,0.00,FEW,OVC,0.00,WeatherDisplay:10.37,2013-12-03 06:29:00,
2013-12-03 00:34:00,36.7,19.3,29.59,North,0,0.0,0.0,49,0.00,FEW,OVC,0.00,WeatherDisplay:10.37,2013-12-03 06:34:00,
2013-12-03 00:39:00,36.7,19.3,29.59,North,0,0.0,0.0,49,0.00,FEW,OVC,0.00,WeatherDisplay:10.37,2013-12-03 06:39:00,
2013-12-03 00:44:00,36.7,19.3,29.59,North,0,0.0,0.0,49,0.00,FEW,OVC,0.00,WeatherDisplay:10.37,2013-12-03 06:44:00,
2013-12-03 00:49:00,36.7,19.3,29.59,North,0,0.0,0.0,49,0.00,FEW,OVC,0.00,WeatherDisplay:10.37,2013-12-03 06:49:00,
2013-12-03 00:54:00,36.7,19.3,29.59,North,0,0.0,0.0,49,0.00,FEW,OVC,0.00,WeatherDisplay:10.37,2013-12-03 06:54:00,
2013-12-03 00:59:00,36.5,19.1,29.59,North,0,0.0,0.0,49,0.00,FEW,OVC,0.00,WeatherDisplay:10.37,2013-12-03 06:59:00,
2013-12-03 01:04:00,36.3,19.0,29.59,North,0,0.0,0.0,49,0.00,CLR,OVC,0.00,WeatherDisplay:10.37,2013-12-03 07:04:00,
2013-12-03 01:09:00,36.3,19.4,29.59,North,0,0.0,0.0,50,0.00,CLR,OVC,0.00,WeatherDisplay:10.37,2013-12-03 07:09:00,
2013-12-03 01:14:00,36.3,19.4,29.59,North,0,0.0,0.0,50,0.00,CLR,OVC,0.00,WeatherDisplay:10.37,2013-12-03 07:14:00,
2013-12-03 01:19:00,36.1,19.3,29.59,North,0,0.0,0.0,50,0.00,CLR,OVC,0.00,WeatherDisplay:10.37,2013-12-03 07:19:00,
2013-12-03 01:24:00,36.1,19.3,29.59,North,0,0.0,0.0,50,0.00,CLR,OVC,0.00,WeatherDisplay:10.37,2013-12-03 07:24:00,
2013-12-03 01:29:00,36.0,19.1,29.59,North,0,0.0,0.0,50,0.00,CLR,OVC,0.00,WeatherDisplay:10.37,2013-12-03 07:29:00,
2013-12-03 01:34:00,36.0,19.1,29.59,North,0,0.0,0.0,50,0.00,FEW,OVC,0.00,WeatherDisplay:10.37,2013-12-03 07:34:00,
2013-12-03 01:39:00,36.0,19.1,29.59,North,0,0.0,0.0,50,0.00,FEW,OVC,0.00,WeatherDisplay:10.37,2013-12-03 07:39:00,
2013-12-03 01:44:00,35.8,18.9,29.59,North,0,0.0,0.0,50,0.00,FEW,OVC,0.00,WeatherDisplay:10.37,2013-12-03 07:44:00,
2013-12-03 01:49:00,35.8,18.9,29.59,North,0,0.0,0.0,50,0.00,FEW,OVC,0.00,WeatherDisplay:10.37,2013-12-03 07:49:00,
2013-12-03 01:54:00,35.8,18.9,29.59,North,0,0.0,0.0,50,0.00,FEW,OVC,0.00,WeatherDisplay:10.37,2013-12-03 07:54:00,
2013-12-03 01:59:00,35.8,18.9,29.59,North,0,0.0,0.0,50,0.00,FEW,OVC,0.00,WeatherDisplay:10.37,2013-12-03 07:59:00,
2013-12-03 02:04:00,35.6,18.8,29.59,North,0,0.0,0.0,50,0.00,FEW,OVC,0.00,WeatherDisplay:10.37,2013-12-03 08:04:00,
2013-12-03 02:09:00,35.6,19.2,29.59,North,0,0.0,0.0,51,0.00,FEW,OVC,0.00,WeatherDisplay:10.37,2013-12-03 08:09:00,
2013-12-03 02:14:00,35.6,19.2,29.59,North,0,0.0,0.0,51,0.00,FEW,OVC,0.00,WeatherDisplay:10.37,2013-12-03 08:14:00,
2013-12-03 02:19:00,35.6,19.2,29.59,North,0,0.0,0.0,51,0.00,FEW,OVC,0.00,WeatherDisplay:10.37,2013-12-03 08:19:00,
2013-12-03 02:24:00,35.6,19.2,29.59,North,0,0.0,0.0,51,0.00,FEW,OVC,0.00,WeatherDisplay:10.37,2013-12-03 08:24:00,
2013-12-03 02:29:00,35.6,19.2,29.59,North,0,0.0,0.0,51,0.00,FEW,OVC,0.00,WeatherDisplay:10.37,2013-12-03 08:29:00,
2013-12-03 02:34:00,35.4,19.5,29.59,North,0,0.0,0.0,52,0.00,OVC,,0.00,WeatherDisplay:10.37,2013-12-03 08:34:00,
2013-12-03 02:39:00,35.4,19.5,29.59,North,0,0.0,0.0,52,0.00,OVC,,0.00,WeatherDisplay:10.37,2013-12-03 08:39:00,
2013-12-03 02:44:00,35.6,19.2,29.59,North,0,0.0,0.0,51,0.00,OVC,,0.00,WeatherDisplay:10.37,2013-12-03 08:44:00,
2013-12-03 02:49:00,35.6,19.7,29.56,North,0,0.0,0.0,52,0.00,OVC,,0.00,WeatherDisplay:10.37,2013-12-03 08:49:00,
2013-12-03 02:54:00,35.6,19.7,29.56,North,0,0.0,0.0,52,0.00,OVC,,0.00,WeatherDisplay:10.37,2013-12-03 08:54:00,
2013-12-03 02:59:00,35.6,19.7,29.56,North,0,0.0,0.0,52,0.00,OVC,,0.00,WeatherDisplay:10.37,2013-12-03 08:59:00,
2013-12-03 03:04:00,35.6,19.7,29.56,North,0,0.0,0.0,52,0.00,OVC,,0.00,WeatherDisplay:10.37,2013-12-03 09:04:00,
2013-12-03 03:09:00,35.8,19.9,29.56,North,0,0.0,0.0,52,0.00,OVC,,0.00,WeatherDisplay:10.37,2013-12-03 09:09:00,
2013-12-03 03:14:00,35.8,19.9,29.56,North,0,0.0,0.0,52,0.00,OVC,,0.00,WeatherDisplay:10.37,2013-12-03 09:14:00,
2013-12-03 03:19:00,36.0,20.0,29.56,North,0,0.0,0.0,52,0.00,OVC,,0.00,WeatherDisplay:10.37,2013-12-03 09:19:00,
2013-12-03 03:24:00,36.0,20.0,29.56,North,0,0.0,0.0,52,0.00,OVC,,0.00,WeatherDisplay:10.37,2013-12-03 09:24:00,
2013-12-03 03:29:00,36.1,20.6,29.56,North,0,0.0,0.0,53,0.00,OVC,,0.00,WeatherDisplay:10.37,2013-12-03 09:29:00,
2013-12-03 03:34:00,36.1,20.6,29.59,North,0,0.0,0.0,53,0.00,OVC,,0.00,WeatherDisplay:10.37,2013-12-03 09:34:00,
2013-12-03 03:39:00,36.3,20.8,29.59,North,0,0.0,0.0,53,0.00,OVC,,0.00,WeatherDisplay:10.37,2013-12-03 09:39:00,
2013-12-03 03:44:00,36.3,20.8,29.59,North,0,0.0,0.0,53,0.00,OVC,,0.00,WeatherDisplay:10.37,2013-12-03 09:44:00,
2013-12-03 03:49:00,36.3,20.8,29.59,North,0,0.0,0.0,53,0.00,OVC,,0.00,WeatherDisplay:10.37,2013-12-03 09:49:00,
2013-12-03 03:54:00,36.3,20.8,29.59,North,0,0.0,0.0,53,0.00,OVC,,0.00,WeatherDisplay:10.37,2013-12-03 09:54:00,
2013-12-03 03:59:00,36.3,20.8,29.59,North,0,0.0,0.0,53,0.00,OVC,,0.00,WeatherDisplay:10.37,2013-12-03 09:59:00,
2013-12-03 04:04:00,36.1,20.6,29.59,North,0,0.0,0.0,53,0.00,OVC,,0.00,WeatherDisplay:10.37,2013-12-03 10:04:00,
2013-12-03 04:09:00,36.0,20.5,29.59,North,0,0.0,0.0,53,0.00,OVC,,0.00,WeatherDisplay:10.37,2013-12-03 10:09:00,
2013-12-03 04:14:00,35.8,20.3,29.59,North,0,0.0,0.0,53,0.00,OVC,,0.00,WeatherDisplay:10.37,2013-12-03 10:14:00,
2013-12-03 04:19:00,35.8,20.3,29.59,North,0,0.0,0.0,53,0.00,OVC,,0.00,WeatherDisplay:10.37,2013-12-03 10:19:00,
2013-12-03 04:24:00,35.8,20.7,29.59,North,0,0.0,0.0,54,0.00,OVC,,0.00,WeatherDisplay:10.37,2013-12-03 10:24:00,
2013-12-03 04:29:00,36.0,20.9,29.59,North,0,0.0,0.0,54,0.00,OVC,,0.00,WeatherDisplay:10.37,2013-12-03 10:29:00,
2013-12-03 04:34:00,36.0,20.9,29.59,North,0,0.0,0.0,54,0.00,CLR,OVC,0.00,WeatherDisplay:10.37,2013-12-03 10:34:00,
2013-12-03 04:39:00,36.1,21.1,29.59,North,0,0.0,0.0,54,0.00,CLR,OVC,0.00,WeatherDisplay:10.37,2013-12-03 10:39:00,
2013-12-03 04:44:00,36.1,21.1,29.59,North,0,0.0,0.0,54,0.00,CLR,OVC,0.00,WeatherDisplay:10.37,2013-12-03 10:44:00,
2013-12-03 04:49:00,36.1,21.1,29.59,North,0,0.0,0.0,54,0.00,CLR,OVC,0.00,WeatherDisplay:10.37,2013-12-03 10:49:00,
2013-12-03 04:54:00,36.3,21.7,29.59,North,0,0.0,0.0,55,0.00,CLR,OVC,0.00,WeatherDisplay:10.37,2013-12-03 10:54:00,
2013-12-03 04:59:00,36.7,22.0,29.59,North,0,0.0,0.0,55,0.00,CLR,OVC,0.00,WeatherDisplay:10.37,2013-12-03 10:59:00,
2013-12-03 05:04:00,36.7,22.0,29.59,North,0,0.0,0.0,55,0.00,CLR,OVC,0.00,WeatherDisplay:10.37,2013-12-03 11:04:00,
2013-12-03 05:09:00,36.9,22.2,29.59,North,0,0.0,0.0,55,0.00,CLR,OVC,0.00,WeatherDisplay:10.37,2013-12-03 11:09:00,
2013-12-03 05:14:00,36.9,22.2,29.59,North,0,0.0,0.0,55,0.00,CLR,OVC,0.00,WeatherDisplay:10.37,2013-12-03 11:14:00,
2013-12-03 05:19:00,37.0,22.4,29.59,North,0,0.0,0.0,55,0.00,CLR,OVC,0.00,WeatherDisplay:10.37,2013-12-03 11:19:00,
2013-12-03 05:24:00,37.2,22.9,29.59,North,0,0.0,0.0,56,0.00,CLR,OVC,0.00,WeatherDisplay:10.37,2013-12-03 11:24:00,
2013-12-03 05:29:00,37.4,22.7,29.59,North,0,0.0,0.0,55,0.00,CLR,OVC,0.00,WeatherDisplay:10.37,2013-12-03 11:29:00,
2013-12-03 05:34:00,37.4,22.7,29.59,North,0,0.0,0.0,55,0.00,CLR,OVC,0.00,WeatherDisplay:10.37,2013-12-03 11:34:00,
2013-12-03 05:39:00,37.6,22.9,29.59,North,0,0.0,0.0,55,0.00,CLR,OVC,0.00,WeatherDisplay:10.37,2013-12-03 11:39:00,
2013-12-03 05:44:00,37.6,22.9,29.59,North,0,0.0,0.0,55,0.00,CLR,OVC,0.00,WeatherDisplay:10.37,2013-12-03 11:44:00,
2013-12-03 05:49:00,37.6,23.3,29.59,North,0,0.0,0.0,56,0.00,CLR,OVC,0.00,WeatherDisplay:10.37,2013-12-03 11:49:00,
2013-12-03 05:54:00,37.6,23.3,29.59,North,0,0.0,0.0,56,0.00,CLR,OVC,0.00,WeatherDisplay:10.37,2013-12-03 11:54:00,
2013-12-03 05:59:00,37.8,23.5,29.59,North,0,0.0,0.0,56,0.00,CLR,OVC,0.00,WeatherDisplay:10.37,2013-12-03 11:59:00,
2013-12-03 06:04:00,37.9,23.6,29.59,North,0,0.0,0.0,56,0.00,CLR,OVC,0.00,WeatherDisplay:10.37,2013-12-03 12:04:00,
2013-12-03 06:09:00,37.9,23.6,29.59,North,0,0.0,0.0,56,0.00,CLR,OVC,0.00,WeatherDisplay:10.37,2013-12-03 12:09:00,
2013-12-03 06:14:00,37.9,23.6,29.59,North,0,0.0,0.0,56,0.00,CLR,OVC,0.00,WeatherDisplay:10.37,2013-12-03 12:14:00,
2013-12-03 06:19:00,37.9,23.6,29.59,North,0,0.0,0.0,56,0.00,CLR,OVC,0.00,WeatherDisplay:10.37,2013-12-03 12:19:00,
2013-12-03 06:24:00,38.1,23.8,29.59,North,0,0.0,0.0,56,0.00,CLR,OVC,0.00,WeatherDisplay:10.37,2013-12-03 12:24:00,
2013-12-03 06:29:00,38.1,23.8,29.59,North,0,0.0,0.0,56,0.00,CLR,OVC,0.00,WeatherDisplay:10.37,2013-12-03 12:29:00,
2013-12-03 06:34:00,38.1,23.8,29.59,North,0,0.0,0.0,56,0.00,CLR,OVC,0.00,WeatherDisplay:10.37,2013-12-03 12:34:00,
2013-12-03 06:39:00,38.1,24.2,29.59,North,0,0.0,0.0,57,0.00,CLR,OVC,0.00,WeatherDisplay:10.37,2013-12-03 12:39:00,
2013-12-03 06:44:00,38.1,24.2,29.59,North,0,0.0,0.0,57,0.00,CLR,OVC,0.00,WeatherDisplay:10.37,2013-12-03 12:44:00,
2013-12-03 06:49:00,38.1,24.2,29.59,North,0,0.0,0.0,57,0.00,CLR,OVC,0.00,WeatherDisplay:10.37,2013-12-03 12:49:00,
2013-12-03 06:54:00,38.1,24.2,29.59,North,0,0.0,0.0,57,0.00,CLR,OVC,0.00,WeatherDisplay:10.37,2013-12-03 12:54:00,
2013-12-03 06:59:00,38.3,24.4,29.59,North,0,0.0,0.0,57,0.00,CLR,OVC,0.00,WeatherDisplay:10.37,2013-12-03 12:59:00,
2013-12-03 07:04:00,38.3,24.4,29.59,North,0,0.0,0.0,57,0.00,CLR,OVC,0.00,WeatherDisplay:10.37,2013-12-03 13:04:00,
2013-12-03 07:09:00,38.3,24.4,29.59,North,0,0.0,0.0,57,0.00,CLR,OVC,0.00,WeatherDisplay:10.37,2013-12-03 13:09:00,
2013-12-03 07:14:00,38.3,24.4,29.59,North,0,0.0,0.0,57,0.00,CLR,OVC,0.00,WeatherDisplay:10.37,2013-12-03 13:14:00,
2013-12-03 07:19:00,38.3,24.8,29.59,North,0,0.0,0.0,58,0.00,CLR,OVC,0.00,WeatherDisplay:10.37,2013-12-03 13:19:00,
2013-12-03 07:24:00,38.3,24.8,29.59,North,0,0.0,0.0,58,0.00,CLR,OVC,0.00,WeatherDisplay:10.37,2013-12-03 13:24:00,
2013-12-03 07:29:00,38.5,25.0,29.59,North,0,0.0,0.0,58,0.00,CLR,OVC,0.00,WeatherDisplay:10.37,2013-12-03 13:29:00,
2013-12-03 07:34:00,38.5,25.0,29.59,North,0,0.0,0.0,58,0.00,CLR,OVC,0.00,WeatherDisplay:10.37,2013-12-03 13:34:00,
2013-12-03 07:39:00,38.7,25.1,29.59,North,0,0.0,0.0,58,0.00,CLR,OVC,0.00,WeatherDisplay:10.37,2013-12-03 13:39:00,
2013-12-03 07:44:00,38.7,25.1,29.59,North,0,0.0,0.0,58,0.00,CLR,OVC,0.00,WeatherDisplay:10.37,2013-12-03 13:44:00,
2013-12-03 07:49:00,38.8,25.3,29.59,North,0,0.0,0.0,58,0.00,CLR,OVC,0.00,WeatherDisplay:10.37,2013-12-03 13:49:00,
2013-12-03 07:54:00,38.8,25.7,29.59,North,0,0.0,0.0,59,0.00,CLR,OVC,0.00,WeatherDisplay:10.37,2013-12-03 13:54:00,
2013-12-03 07:59:00,38.8,25.7,29.59,North,0,0.0,0.0,59,0.00,CLR,OVC,0.00,WeatherDisplay:10.37,2013-12-03 13:59:00,
2013-12-03 08:04:00,38.8,25.7,29.62,North,0,0.0,0.0,59,0.00,OVC,,0.00,WeatherDisplay:10.37,2013-12-03 14:04:00,
2013-12-03 08:09:00,38.8,25.7,29.62,North,0,0.0,0.0,59,0.00,OVC,,0.00,WeatherDisplay:10.37,2013-12-03 14:09:00,
2013-12-03 08:14:00,38.8,25.7,29.62,North,0,0.0,0.0,59,0.00,OVC,,0.00,WeatherDisplay:10.37,2013-12-03 14:14:00,
2013-12-03 08:19:00,39.0,25.9,29.62,North,0,0.0,0.0,59,0.00,OVC,,0.00,WeatherDisplay:10.37,2013-12-03 14:19:00,
2013-12-03 08:24:00,39.0,25.9,29.62,North,0,0.0,0.0,59,0.00,OVC,,0.00,WeatherDisplay:10.37,2013-12-03 14:24:00,
2013-12-03 08:30:00,39.2,26.1,29.62,North,0,0.0,0.0,59,0.00,OVC,,0.00,WeatherDisplay:10.37,2013-12-03 14:30:00,
2013-12-03 08:35:00,39.2,26.1,29.62,North,0,0.0,0.0,59,0.00,OVC,,0.00,WeatherDisplay:10.37,2013-12-03 14:35:00,
2013-12-03 08:40:00,39.4,26.2,29.62,North,0,0.0,0.0,59,0.00,OVC,,0.00,WeatherDisplay:10.37,2013-12-03 14:40:00,
2013-12-03 08:45:00,39.4,26.6,29.62,North,0,0.0,0.0,60,0.00,OVC,,0.00,WeatherDisplay:10.37,2013-12-03 14:45:00,
2013-12-03 08:50:00,39.4,26.6,29.62,North,0,0.0,0.0,60,0.00,OVC,,0.00,WeatherDisplay:10.37,2013-12-03 14:50:00,
2013-12-03 08:55:00,39.6,26.8,29.62,North,0,0.0,0.0,60,0.00,OVC,,0.00,WeatherDisplay:10.37,2013-12-03 14:55:00,
2013-12-03 09:00:00,39.7,27.0,29.62,North,0,0.0,0.0,60,0.00,OVC,,0.00,WeatherDisplay:10.37,2013-12-03 15:00:00,
2013-12-03 09:05:00,39.7,27.0,29.62,North,0,0.0,0.0,60,0.00,OVC,,0.00,WeatherDisplay:10.37,2013-12-03 15:05:00,
2013-12-03 09:10:00,39.9,27.1,29.62,North,0,0.0,0.0,60,0.00,OVC,,0.00,WeatherDisplay:10.37,2013-12-03 15:10:00,
2013-12-03 09:15:00,40.1,27.3,29.62,North,0,0.0,0.0,60,0.00,OVC,,0.00,WeatherDisplay:10.37,2013-12-03 15:15:00,
2013-12-03 09:20:00,40.1,27.3,29.59,North,0,0.0,0.0,60,0.00,OVC,,0.00,WeatherDisplay:10.37,2013-12-03 15:20:00,
2013-12-03 09:25:00,40.3,27.9,29.59,North,0,0.0,0.0,61,0.00,OVC,,0.00,WeatherDisplay:10.37,2013-12-03 15:25:00,
2013-12-03 09:30:00,40.5,28.1,29.59,North,0,0.0,0.0,61,0.00,OVC,,0.00,WeatherDisplay:10.37,2013-12-03 15:30:00,
2013-12-03 09:35:00,40.5,28.1,29.59,North,0,0.0,0.0,61,0.00,OVC,,0.00,WeatherDisplay:10.37,2013-12-03 15:35:00,
2013-12-03 09:40:00,40.6,28.2,29.59,North,0,0.0,0.0,61,0.00,OVC,,0.00,WeatherDisplay:10.37,2013-12-03 15:40:00,
2013-12-03 09:45:00,40.8,28.4,29.59,North,0,0.0,0.0,61,0.00,OVC,,0.00,WeatherDisplay:10.37,2013-12-03 15:45:00,
2013-12-03 09:50:00,41.0,28.6,29.59,North,0,0.0,0.0,61,0.00,OVC,,0.00,WeatherDisplay:10.37,2013-12-03 15:50:00,
2013-12-03 09:55:00,41.2,28.7,29.59,North,0,0.0,0.0,61,0.00,OVC,,0.00,WeatherDisplay:10.37,2013-12-03 15:55:00,
2013-12-03 10:00:00,41.4,29.3,29.62,North,0,0.0,0.0,62,0.00,OVC,,0.00,WeatherDisplay:10.37,2013-12-03 16:00:00,
2013-12-03 10:05:00,41.5,29.5,29.62,North,0,0.0,0.0,62,0.00,OVC,,0.00,WeatherDisplay:10.37,2013-12-03 16:05:00,
2013-12-03 10:10:00,41.7,29.6,29.62,North,0,0.0,0.0,62,0.00,OVC,,0.00,WeatherDisplay:10.37,2013-12-03 16:10:00,
2013-12-03 10:15:00,41.9,29.8,29.62,North,0,0.0,0.0,62,0.00,OVC,,0.00,WeatherDisplay:10.37,2013-12-03 16:15:00,
2013-12-03 10:20:00,42.1,30.0,29.62,North,0,0.0,0.0,62,0.00,OVC,,0.00,WeatherDisplay:10.37,2013-12-03 16:20:00,
2013-12-03 10:25:00,42.3,30.2,29.62,North,0,0.0,0.0,62,0.00,OVC,,0.00,WeatherDisplay:10.37,2013-12-03 16:25:00,
2013-12-03 10:30:00,42.3,30.2,29.62,North,0,0.0,0.0,62,0.00,OVC,,0.00,WeatherDisplay:10.37,2013-12-03 16:30:00,
2013-12-03 10:35:00,42.6,30.5,29.62,North,0,0.0,0.0,62,0.00,OVC,,0.00,WeatherDisplay:10.37,2013-12-03 16:35:00,
2013-12-03 10:40:00,42.8,30.7,29.62,North,0,0.0,0.0,62,0.00,OVC,,0.00,WeatherDisplay:10.37,2013-12-03 16:40:00,
2013-12-03 10:45:00,43.0,30.8,29.62,North,0,0.0,0.0,62,0.00,OVC,,0.00,WeatherDisplay:10.37,2013-12-03 16:45:00,
2013-12-03 10:50:00,43.2,31.0,29.62,North,0,0.0,0.0,62,0.00,OVC,,0.00,WeatherDisplay:10.37,2013-12-03 16:50:00,
2013-12-03 10:55:00,43.3,31.2,29.62,North,0,0.0,0.0,62,0.00,OVC,,0.00,WeatherDisplay:10.37,2013-12-03 16:55:00,
2013-12-03 11:00:00,43.3,31.2,29.62,North,0,0.0,0.0,62,0.00,OVC,,0.00,WeatherDisplay:10.37,2013-12-03 17:00:00,
2013-12-03 11:05:00,43.5,31.4,29.62,North,0,0.0,0.0,62,0.00,OVC,,0.00,WeatherDisplay:10.37,2013-12-03 17:05:00,
2013-12-03 11:10:00,43.5,31.4,29.62,North,0,0.0,0.0,62,0.00,OVC,,0.00,WeatherDisplay:10.37,2013-12-03 17:10:00,
2013-12-03 11:15:00,43.5,31.8,29.62,North,0,0.0,0.0,63,0.00,OVC,,0.00,WeatherDisplay:10.37,2013-12-03 17:15:00,
2013-12-03 11:20:00,43.7,31.9,29.62,North,0,0.0,0.0,63,0.00,OVC,,0.00,WeatherDisplay:10.37,2013-12-03 17:20:00,
2013-12-03 11:25:00,43.7,31.9,29.62,North,0,0.0,0.0,63,0.00,OVC,,0.00,WeatherDisplay:10.37,2013-12-03 17:25:00,
2013-12-03 11:30:00,43.9,32.1,29.59,North,0,0.0,0.0,63,0.00,OVC,,0.00,WeatherDisplay:10.37,2013-12-03 17:30:00,
2013-12-03 11:35:00,43.9,32.1,29.59,North,0,0.0,0.0,63,0.00,OVC,,0.00,WeatherDisplay:10.37,2013-12-03 17:35:00,
2013-12-03 11:40:00,44.1,32.3,29.59,North,0,0.0,0.0,63,0.00,OVC,,0.00,WeatherDisplay:10.37,2013-12-03 17:40:00,
2013-12-03 11:45:00,44.1,32.3,29.59,North,0,0.0,0.0,63,0.00,OVC,,0.00,WeatherDisplay:10.37,2013-12-03 17:45:00,
2013-12-03 11:50:00,44.1,32.3,29.62,North,0,0.0,0.0,63,0.00,OVC,,0.00,WeatherDisplay:10.37,2013-12-03 17:50:00,
2013-12-03 11:55:00,44.1,32.3,29.62,North,0,0.0,0.0,63,0.00,OVC,,0.00,WeatherDisplay:10.37,2013-12-03 17:55:00,
2013-12-03 12:00:00,44.1,32.3,29.62,North,0,0.0,0.0,63,0.00,OVC,,0.00,WeatherDisplay:10.37,2013-12-03 18:00:00,
2013-12-03 12:05:00,44.1,32.3,29.62,North,0,0.0,0.0,63,0.00,OVC,,0.00,WeatherDisplay:10.37,2013-12-03 18:05:00,
2013-12-03 12:10:00,44.2,32.8,29.62,North,0,0.0,0.0,64,0.00,OVC,,0.00,WeatherDisplay:10.37,2013-12-03 18:10:00,
2013-12-03 12:15:00,44.4,33.0,29.62,North,0,0.0,0.0,64,0.00,OVC,,0.00,WeatherDisplay:10.37,2013-12-03 18:15:00,
2013-12-03 12:20:00,44.4,33.0,29.62,North,0,0.0,0.0,64,0.00,OVC,,0.00,WeatherDisplay:10.37,2013-12-03 18:20:00,
2013-12-03 12:25:00,44.6,32.8,29.62,North,0,0.0,0.0,63,0.00,OVC,,0.00,WeatherDisplay:10.37,2013-12-03 18:25:00,
2013-12-03 12:30:00,44.6,32.8,29.62,North,0,0.0,0.0,63,0.00,OVC,,0.00,WeatherDisplay:10.37,2013-12-03 18:30:00,
2013-12-03 12:35:00,44.8,33.3,29.62,North,0,0.0,0.0,64,0.00,OVC,,0.00,WeatherDisplay:10.37,2013-12-03 18:35:00,
2013-12-03 12:40:00,45.1,33.7,29.62,North,0,0.0,0.0,64,0.00,OVC,,0.00,WeatherDisplay:10.37,2013-12-03 18:40:00,
2013-12-03 12:45:00,45.1,33.7,29.62,North,0,0.0,0.0,64,0.00,OVC,,0.00,WeatherDisplay:10.37,2013-12-03 18:45:00,
2013-12-03 12:50:00,45.3,33.9,29.59,North,0,0.0,0.0,64,0.00,OVC,,0.00,WeatherDisplay:10.37,2013-12-03 18:50:00,
2013-12-03 12:55:00,45.3,33.9,29.59,North,0,0.0,0.0,64,0.00,OVC,,0.00,WeatherDisplay:10.37,2013-12-03 18:55:00,
2013-12-03 13:00:00,45.3,33.9,29.59,North,0,0.0,0.0,64,0.00,OVC,,0.00,WeatherDisplay:10.37,2013-12-03 19:00:00,
2013-12-03 13:05:00,45.5,34.0,29.59,North,0,0.0,0.0,64,0.00,OVC,,0.00,WeatherDisplay:10.37,2013-12-03 19:05:00,
2013-12-03 13:10:00,45.5,34.0,29.59,North,0,0.0,0.0,64,0.00,OVC,,0.00,WeatherDisplay:10.37,2013-12-03 19:10:00,
2013-12-03 13:15:00,45.5,34.0,29.59,North,0,0.0,0.0,64,0.00,OVC,,0.00,WeatherDisplay:10.37,2013-12-03 19:15:00,
2013-12-03 13:20:00,45.5,33.6,29.59,North,0,0.0,0.0,63,0.00,OVC,,0.00,WeatherDisplay:10.37,2013-12-03 19:20:00,
2013-12-03 13:25:00,45.5,33.6,29.59,North,0,0.0,0.0,63,0.00,OVC,,0.00,WeatherDisplay:10.37,2013-12-03 19:25:00,
2013-12-03 13:30:00,45.5,33.6,29.59,North,0,0.0,0.0,63,0.00,OVC,,0.00,WeatherDisplay:10.37,2013-12-03 19:30:00,
2013-12-03 13:35:00,45.5,33.6,29.59,North,0,0.0,0.0,63,0.00,OVC,,0.00,WeatherDisplay:10.37,2013-12-03 19:35:00,
2013-12-03 13:40:00,45.5,33.6,29.59,North,0,0.0,0.0,63,0.00,OVC,,0.00,WeatherDisplay:10.37,2013-12-03 19:40:00,
2013-12-03 13:45:00,45.5,33.6,29.59,North,0,0.0,0.0,63,0.00,OVC,,0.00,WeatherDisplay:10.37,2013-12-03 19:45:00,
2013-12-03 13:50:00,45.5,33.6,29.56,North,0,0.0,0.0,63,0.00,OVC,,0.00,WeatherDisplay:10.37,2013-12-03 19:50:00,
2013-12-03 13:55:00,45.5,33.6,29.56,North,0,0.0,0.0,63,0.00,OVC,,0.00,WeatherDisplay:10.37,2013-12-03 19:55:00,
2013-12-03 14:00:00,45.7,34.2,29.56,North,0,0.0,0.0,64,0.00,OVC,,0.00,WeatherDisplay:10.37,2013-12-03 20:00:00,
2013-12-03 14:05:00,45.9,34.4,29.56,North,0,0.0,0.0,64,0.00,OVC,,0.00,WeatherDisplay:10.37,2013-12-03 20:05:00,
2013-12-03 14:10:00,46.0,34.5,29.56,North,0,0.0,0.0,64,0.00,OVC,,0.00,WeatherDisplay:10.37,2013-12-03 20:10:00,
2013-12-03 14:15:00,46.2,34.7,29.56,North,0,0.0,0.0,64,0.00,OVC,,0.00,WeatherDisplay:10.37,2013-12-03 20:15:00,
2013-12-03 14:20:00,46.2,34.7,29.56,North,0,0.0,0.0,64,0.00,OVC,,0.00,WeatherDisplay:10.37,2013-12-03 20:20:00,
2013-12-03 14:25:00,46.2,34.3,29.56,North,0,0.0,0.0,63,0.00,OVC,,0.00,WeatherDisplay:10.37,2013-12-03 20:25:00,
2013-12-03 14:30:00,46.4,34.5,29.56,North,0,0.0,0.0,63,0.00,OVC,,0.00,WeatherDisplay:10.37,2013-12-03 20:30:00,
2013-12-03 14:35:00,46.4,34.5,29.56,North,0,0.0,0.0,63,0.00,OVC,,0.00,WeatherDisplay:10.37,2013-12-03 20:35:00,
2013-12-03 14:40:00,46.4,34.5,29.56,North,0,0.0,0.0,63,0.00,OVC,,0.00,WeatherDisplay:10.37,2013-12-03 20:40:00,
2013-12-03 14:45:00,46.6,34.7,29.53,North,0,0.0,0.0,63,0.00,OVC,,0.00,WeatherDisplay:10.37,2013-12-03 20:45:00,
2013-12-03 14:50:00,46.6,34.7,29.53,North,0,0.0,0.0,63,0.00,OVC,,0.00,WeatherDisplay:10.37,2013-12-03 20:50:00,
2013-12-03 14:55:00,46.6,34.7,29.53,North,0,0.0,0.0,63,0.00,OVC,,0.00,WeatherDisplay:10.37,2013-12-03 20:55:00,
2013-12-03 15:00:00,46.6,34.2,29.56,North,0,0.0,0.0,62,0.00,OVC,,0.00,WeatherDisplay:10.37,2013-12-03 21:00:00,
2013-12-03 15:05:00,46.6,34.2,29.56,North,0,0.0,0.0,62,0.00,OVC,,0.00,WeatherDisplay:10.37,2013-12-03 21:05:00,
2013-12-03 15:10:00,46.6,34.2,29.56,North,0,0.0,0.0,62,0.00,OVC,,0.00,WeatherDisplay:10.37,2013-12-03 21:10:00,
2013-12-03 15:15:00,46.6,34.2,29.56,North,0,0.0,0.0,62,0.00,OVC,,0.00,WeatherDisplay:10.37,2013-12-03 21:15:00,
2013-12-03 15:20:00,46.6,34.2,29.56,North,0,0.0,0.0,62,0.00,OVC,,0.00,WeatherDisplay:10.37,2013-12-03 21:20:00,
2013-12-03 15:25:00,46.6,34.2,29.56,North,0,0.0,0.0,62,0.00,OVC,,0.00,WeatherDisplay:10.37,2013-12-03 21:25:00,
2013-12-03 15:30:00,46.8,34.4,29.56,North,0,0.0,0.0,62,0.00,OVC,,0.00,WeatherDisplay:10.37,2013-12-03 21:30:00,
2013-12-03 15:35:00,46.8,34.4,29.56,North,0,0.0,0.0,62,0.00,OVC,,0.00,WeatherDisplay:10.37,2013-12-03 21:35:00,
2013-12-03 15:40:00,46.8,34.4,29.56,North,0,0.0,0.0,62,0.00,OVC,,0.00,WeatherDisplay:10.37,2013-12-03 21:40:00,
2013-12-03 15:45:00,46.6,34.2,29.59,North,0,0.0,0.0,62,0.00,OVC,,0.00,WeatherDisplay:10.37,2013-12-03 21:45:00,
2013-12-03 15:50:00,46.6,34.2,29.59,North,0,0.0,0.0,62,0.00,OVC,,0.00,WeatherDisplay:10.37,2013-12-03 21:50:00,
2013-12-03 15:55:00,46.6,34.2,29.59,North,0,0.0,0.0,62,0.00,OVC,,0.00,WeatherDisplay:10.37,2013-12-03 21:55:00,
2013-12-03 16:00:00,46.6,34.2,29.59,North,0,0.0,0.0,62,0.00,OVC,,0.00,WeatherDisplay:10.37,2013-12-03 22:00:00,
2013-12-03 16:05:00,46.6,34.2,29.59,North,0,0.0,0.0,62,0.00,OVC,,0.00,WeatherDisplay:10.37,2013-12-03 22:05:00,
2013-12-03 16:10:00,46.6,34.2,29.59,North,0,0.0,0.0,62,0.00,OVC,,0.00,WeatherDisplay:10.37,2013-12-03 22:10:00,
2013-12-03 16:15:00,46.6,34.2,29.59,North,0,0.0,0.0,62,0.00,OVC,,0.00,WeatherDisplay:10.37,2013-12-03 22:15:00,
2013-12-03 16:20:00,46.6,34.2,29.59,North,0,0.0,0.0,62,0.00,OVC,,0.00,WeatherDisplay:10.37,2013-12-03 22:20:00,
2013-12-03 16:25:00,46.4,33.7,29.59,North,0,0.0,0.0,61,0.00,OVC,,0.00,WeatherDisplay:10.37,2013-12-03 22:25:00,
2013-12-03 16:30:00,46.4,33.7,29.59,North,0,0.0,0.0,61,0.00,OVC,,0.00,WeatherDisplay:10.37,2013-12-03 22:30:00,
2013-12-03 16:35:00,46.4,33.7,29.59,North,0,0.0,0.0,61,0.00,OVC,,0.00,WeatherDisplay:10.37,2013-12-03 22:35:00,
2013-12-03 16:40:00,46.4,33.7,29.59,North,0,0.0,0.0,61,0.00,OVC,,0.00,WeatherDisplay:10.37,2013-12-03 22:40:00,
2013-12-03 16:45:00,46.4,33.7,29.59,North,0,0.0,0.0,61,0.00,OVC,,0.00,WeatherDisplay:10.37,2013-12-03 22:45:00,
2013-12-03 16:50:00,46.4,33.7,29.59,North,0,0.0,0.0,61,0.00,OVC,,0.00,WeatherDisplay:10.37,2013-12-03 22:50:00,
2013-12-03 16:55:00,46.2,33.5,29.59,North,0,0.0,0.0,61,0.00,OVC,,0.00,WeatherDisplay:10.37,2013-12-03 22:55:00,
2013-12-03 17:00:00,46.2,33.9,29.59,North,0,0.0,0.0,62,0.00,OVC,,0.00,WeatherDisplay:10.37,2013-12-03 23:00:00,
2013-12-03 17:05:00,46.2,33.9,29.59,North,0,0.0,0.0,62,0.00,OVC,,0.00,WeatherDisplay:10.37,2013-12-03 23:05:00,
2013-12-03 17:10:00,46.4,34.1,29.59,North,0,0.0,0.0,62,0.00,OVC,,0.00,WeatherDisplay:10.37,2013-12-03 23:10:00,
2013-12-03 17:15:00,46.4,34.1,29.62,North,0,0.0,0.0,62,0.00,OVC,,0.00,WeatherDisplay:10.37,2013-12-03 23:15:00,
2013-12-03 17:20:00,46.4,33.7,29.62,North,0,0.0,0.0,61,0.00,OVC,,0.00,WeatherDisplay:10.37,2013-12-03 23:20:00,
2013-12-03 17:25:00,46.4,33.7,29.62,North,0,0.0,0.0,61,0.00,OVC,,0.00,WeatherDisplay:10.37,2013-12-03 23:25:00,
2013-12-03 17:30:00,46.4,33.7,29.62,North,0,0.0,0.0,61,0.00,OVC,,0.00,WeatherDisplay:10.37,2013-12-03 23:30:00,
2013-12-03 17:35:00,46.4,33.7,29.62,North,0,0.0,0.0,61,0.00,OVC,,0.00,WeatherDisplay:10.37,2013-12-03 23:35:00,
2013-12-03 17:40:00,46.4,33.7,29.62,North,0,0.0,0.0,61,0.00,OVC,,0.00,WeatherDisplay:10.37,2013-12-03 23:40:00,
2013-12-03 17:45:00,46.6,33.8,29.62,North,0,0.0,0.0,61,0.00,OVC,,0.00,WeatherDisplay:10.37,2013-12-03 23:45:00,
2013-12-03 17:50:00,46.6,34.2,29.62,North,0,0.0,0.0,62,0.00,OVC,,0.00,WeatherDisplay:10.37,2013-12-03 23:50:00,
2013-12-03 17:55:00,46.6,34.2,29.62,North,0,0.0,0.0,62,0.00,OVC,,0.00,WeatherDisplay:10.37,2013-12-03 23:55:00,
2013-12-03 18:00:00,46.8,34.4,29.62,North,0,0.0,0.0,62,0.00,OVC,,0.00,WeatherDisplay:10.37,2013-12-04 00:00:00,
2013-12-03 18:05:00,46.8,34.4,29.62,North,0,0.0,0.0,62,0.00,OVC,,0.00,WeatherDisplay:10.37,2013-12-04 00:05:00,
2013-12-03 18:10:00,46.8,34.4,29.62,North,0,0.0,0.0,62,0.00,OVC,,0.00,WeatherDisplay:10.37,2013-12-04 00:10:00,
2013-12-03 18:15:00,46.9,34.6,29.62,North,0,0.0,0.0,62,0.00,OVC,,0.00,WeatherDisplay:10.37,2013-12-04 00:15:00,
2013-12-03 18:20:00,46.9,34.6,29.62,North,0,0.0,0.0,62,0.00,OVC,,0.00,WeatherDisplay:10.37,2013-12-04 00:20:00,
2013-12-03 18:25:00,46.9,34.2,29.62,North,0,0.0,0.0,61,0.00,OVC,,0.00,WeatherDisplay:10.37,2013-12-04 00:25:00,
2013-12-03 18:30:00,46.8,34.0,29.62,North,0,0.0,0.0,61,0.00,OVC,,0.00,WeatherDisplay:10.37,2013-12-04 00:30:00,
2013-12-03 18:35:00,46.8,34.4,29.62,North,0,0.0,0.0,62,0.00,OVC,,0.00,WeatherDisplay:10.37,2013-12-04 00:35:00,
2013-12-03 18:40:00,46.8,34.4,29.62,North,0,0.0,0.0,62,0.00,OVC,,0.00,WeatherDisplay:10.37,2013-12-04 00:40:00,
2013-12-03 18:45:00,46.8,34.4,29.59,North,0,0.0,0.0,62,0.00,OVC,,0.00,WeatherDisplay:10.37,2013-12-04 00:45:00,
2013-12-03 18:50:00,46.8,34.4,29.59,North,0,0.0,0.0,62,0.00,OVC,,0.00,WeatherDisplay:10.37,2013-12-04 00:50:00,
2013-12-03 18:55:00,46.8,34.4,29.59,North,0,0.0,0.0,62,0.00,OVC,,0.00,WeatherDisplay:10.37,2013-12-04 00:55:00,
2013-12-03 19:00:00,46.8,34.4,29.62,North,0,0.0,0.0,62,0.00,OVC,,0.00,WeatherDisplay:10.37,2013-12-04 01:00:00,
2013-12-03 19:06:00,46.8,34.4,29.62,North,0,0.0,0.0,62,0.00,SCT,OVC,0.00,WeatherDisplay:10.37,2013-12-04 01:06:00,
2013-12-03 19:11:00,46.9,34.6,29.62,North,0,0.0,0.0,62,0.00,SCT,OVC,0.00,WeatherDisplay:10.37,2013-12-04 01:11:00,
2013-12-03 19:16:00,46.9,34.6,29.62,North,0,0.0,0.0,62,0.00,SCT,OVC,0.00,WeatherDisplay:10.37,2013-12-04 01:16:00,
2013-12-03 19:21:00,47.1,34.8,29.62,North,0,0.0,0.0,62,0.00,SCT,OVC,0.00,WeatherDisplay:10.37,2013-12-04 01:21:00,
2013-12-03 19:26:00,47.3,34.9,29.62,North,0,0.0,0.0,62,0.00,SCT,OVC,0.00,WeatherDisplay:10.37,2013-12-04 01:26:00,
2013-12-03 19:31:00,47.5,35.1,29.59,North,0,0.0,0.0,62,0.00,BKN,OVC,0.00,WeatherDisplay:10.37,2013-12-04 01:31:00,
2013-12-03 19:36:00,47.5,35.1,29.59,North,0,0.0,0.0,62,0.00,BKN,OVC,0.00,WeatherDisplay:10.37,2013-12-04 01:36:00,
2013-12-03 19:41:00,47.5,35.1,29.59,North,0,0.0,0.0,62,0.00,BKN,OVC,0.00,WeatherDisplay:10.37,2013-12-04 01:41:00,
2013-12-03 19:46:00,47.5,35.1,29.59,North,0,0.0,0.0,62,0.00,BKN,OVC,0.00,WeatherDisplay:10.37,2013-12-04 01:46:00,
2013-12-03 19:51:00,47.5,35.1,29.59,North,0,0.0,0.0,62,0.00,BKN,OVC,0.00,WeatherDisplay:10.37,2013-12-04 01:51:00,
2013-12-03 19:56:00,47.7,35.3,29.59,North,0,0.0,0.0,62,0.00,BKN,OVC,0.00,WeatherDisplay:10.37,2013-12-04 01:56:00,
2013-12-03 20:01:00,47.7,35.3,29.59,North,0,0.0,0.0,62,0.00,OVC,,0.00,WeatherDisplay:10.37,2013-12-04 02:01:00,
2013-12-03 20:06:00,47.7,35.3,29.59,North,0,0.0,0.0,62,0.00,OVC,,0.00,WeatherDisplay:10.37,2013-12-04 02:06:00,
2013-12-03 20:11:00,47.7,35.3,29.59,North,0,0.0,0.0,62,0.00,OVC,,0.00,WeatherDisplay:10.37,2013-12-04 02:11:00,
2013-12-03 20:16:00,47.7,35.3,29.62,North,0,0.0,0.0,62,0.00,OVC,,0.00,WeatherDisplay:10.37,2013-12-04 02:16:00,
2013-12-03 20:21:00,47.7,35.3,29.62,North,0,0.0,0.0,62,0.00,OVC,,0.00,WeatherDisplay:10.37,2013-12-04 02:21:00,
2013-12-03 20:26:00,47.8,35.8,29.62,North,0,0.0,0.0,63,0.00,OVC,,0.00,WeatherDisplay:10.37,2013-12-04 02:26:00,
2013-12-03 20:31:00,47.8,35.8,29.62,North,0,0.0,0.0,63,0.00,OVC,,0.00,WeatherDisplay:10.37,2013-12-04 02:31:00,
2013-12-03 20:36:00,47.8,35.8,29.62,North,0,0.0,0.0,63,0.00,OVC,,0.00,WeatherDisplay:10.37,2013-12-04 02:36:00,
2013-12-03 20:41:00,47.8,35.8,29.62,North,0,0.0,0.0,63,0.00,OVC,,0.00,WeatherDisplay:10.37,2013-12-04 02:41:00,
2013-12-03 20:46:00,47.8,35.8,29.62,North,0,0.0,0.0,63,0.00,OVC,,0.00,WeatherDisplay:10.37,2013-12-04 02:46:00,
2013-12-03 20:51:00,47.8,35.8,29.62,North,0,0.0,0.0,63,0.00,OVC,,0.00,WeatherDisplay:10.37,2013-12-04 02:51:00,
2013-12-03 20:56:00,47.8,35.8,29.62,North,0,0.0,0.0,63,0.00,OVC,,0.00,WeatherDisplay:10.37,2013-12-04 02:56:00,
2013-12-03 21:01:00,47.8,35.8,29.62,North,0,0.0,0.0,63,0.00,OVC,,0.00,WeatherDisplay:10.37,2013-12-04 03:01:00,
2013-12-03 21:06:00,47.7,35.7,29.62,North,0,0.0,0.0,63,0.00,OVC,,0.00,WeatherDisplay:10.37,2013-12-04 03:06:00,
2013-12-03 21:11:00,47.7,35.7,29.62,North,0,0.0,0.0,63,0.00,OVC,,0.00,WeatherDisplay:10.37,2013-12-04 03:11:00,
2013-12-03 21:16:00,47.7,35.7,29.62,North,0,0.0,0.0,63,0.00,OVC,,0.00,WeatherDisplay:10.37,2013-12-04 03:16:00,
2013-12-03 21:21:00,47.5,35.5,29.62,North,0,0.0,0.0,63,0.00,OVC,,0.00,WeatherDisplay:10.37,2013-12-04 03:21:00,
2013-12-03 21:26:00,47.5,35.5,29.62,North,0,0.0,0.0,63,0.00,OVC,,0.00,WeatherDisplay:10.37,2013-12-04 03:26:00,
2013-12-03 21:31:00,47.3,35.3,29.62,North,0,0.0,0.0,63,0.00,BKN,OVC,0.00,WeatherDisplay:10.37,2013-12-04 03:31:00,
2013-12-03 21:36:00,47.3,35.3,29.62,North,0,0.0,0.0,63,0.00,BKN,OVC,0.00,WeatherDisplay:10.37,2013-12-04 03:36:00,
2013-12-03 21:41:00,47.3,35.3,29.62,North,0,0.0,0.0,63,0.00,BKN,OVC,0.00,WeatherDisplay:10.37,2013-12-04 03:41:00,
2013-12-03 21:46:00,47.3,35.3,29.59,North,0,0.0,0.0,63,0.00,BKN,OVC,0.00,WeatherDisplay:10.37,2013-12-04 03:46:00,
2013-12-03 21:51:00,47.1,35.2,29.59,North,0,0.0,0.0,63,0.00,BKN,OVC,0.00,WeatherDisplay:10.37,2013-12-04 03:51:00,
2013-12-03 21:56:00,47.1,35.2,29.59,North,0,0.0,0.0,63,0.00,BKN,OVC,0.00,WeatherDisplay:10.37,2013-12-04 03:56:00,
2013-12-03 22:01:00,47.3,35.3,29.59,North,0,0.0,0.0,63,0.00,BKN,OVC,0.00,WeatherDisplay:10.37,2013-12-04 04:01:00,
2013-12-03 22:06:00,47.3,35.3,29.59,North,0,0.0,0.0,63,0.00,BKN,OVC,0.00,WeatherDisplay:10.37,2013-12-04 04:06:00,
2013-12-03 22:11:00,47.3,35.7,29.59,North,0,0.0,0.0,64,0.00,BKN,OVC,0.00,WeatherDisplay:10.37,2013-12-04 04:11:00,
2013-12-03 22:16:00,47.5,35.9,29.59,North,0,0.0,0.0,64,0.00,BKN,OVC,0.00,WeatherDisplay:10.37,2013-12-04 04:16:00,
2013-12-03 22:21:00,47.5,35.9,29.59,North,0,0.0,0.0,64,0.00,BKN,OVC,0.00,WeatherDisplay:10.37,2013-12-04 04:21:00,
2013-12-03 22:26:00,47.8,36.6,29.59,North,0,0.0,0.0,65,0.00,BKN,OVC,0.00,WeatherDisplay:10.37,2013-12-04 04:26:00,
2013-12-03 22:31:00,48.0,36.8,29.59,North,0,0.0,0.0,65,0.00,BKN,OVC,0.00,WeatherDisplay:10.37,2013-12-04 04:31:00,
2013-12-03 22:36:00,48.0,36.4,29.59,North,0,0.0,0.0,64,0.00,BKN,OVC,0.00,WeatherDisplay:10.37,2013-12-04 04:36:00,
2013-12-03 22:41:00,48.2,36.6,29.59,North,0,0.0,0.0,64,0.00,BKN,OVC,0.00,WeatherDisplay:10.37,2013-12-04 04:41:00,
2013-12-03 22:46:00,48.2,36.6,29.62,North,0,0.0,0.0,64,0.00,BKN,OVC,0.00,WeatherDisplay:10.37,2013-12-04 04:46:00,
2013-12-03 22:51:00,48.4,36.8,29.62,North,0,0.0,0.0,64,0.00,BKN,OVC,0.00,WeatherDisplay:10.37,2013-12-04 04:51:00,
2013-12-03 22:56:00,48.4,36.8,29.62,North,0,0.0,0.0,64,0.00,BKN,OVC,0.00,WeatherDisplay:10.37,2013-12-04 04:56:00,
2013-12-03 23:01:00,48.6,36.9,29.59,North,0,0.0,0.0,64,0.00,OVC,,0.00,WeatherDisplay:10.37,2013-12-04 05:01:00,
2013-12-03 23:02:00,48.6,37.3,29.59,North,0,0.0,0.0,65,0.00,OVC,,0.00,WeatherDisplay:10.37,2013-12-04 05:02:00,
2013-12-03 23:03:00,48.7,37.5,29.59,North,0,0.0,0.0,65,0.00,OVC,,0.00,WeatherDisplay:10.37,2013-12-04 05:03:00,
2013-12-03 23:04:00,48.7,37.5,29.59,North,0,0.0,0.0,65,0.00,OVC,,0.00,WeatherDisplay:10.37,2013-12-04 05:04:00,
2013-12-03 23:09:00,48.7,37.5,29.59,North,0,0.0,0.0,65,0.00,OVC,,0.00,WeatherDisplay:10.37,2013-12-04 05:09:00,
2013-12-03 23:14:00,48.9,37.7,29.59,North,0,0.0,0.0,65,0.00,OVC,,0.00,WeatherDisplay:10.37,2013-12-04 05:14:00,
2013-12-03 23:19:00,48.9,37.7,29.59,North,0,0.0,0.0,65,0.00,OVC,,0.00,WeatherDisplay:10.37,2013-12-04 05:19:00,
2013-12-03 23:24:00,49.1,37.8,29.59,North,0,0.0,0.0,65,0.00,OVC,,0.00,WeatherDisplay:10.37,2013-12-04 05:24:00,
2013-12-03 23:29:00,49.1,37.8,29.59,North,0,0.0,0.0,65,0.00,OVC,,0.00,WeatherDisplay:10.37,2013-12-04 05:29:00,
2013-12-03 23:34:00,49.1,37.8,29.62,North,0,0.0,0.0,65,0.00,OVC,,0.00,WeatherDisplay:10.37,2013-12-04 05:34:00,
2013-12-03 23:39:00,49.1,37.8,29.62,North,0,0.0,0.0,65,0.00,OVC,,0.00,WeatherDisplay:10.37,2013-12-04 05:39:00,
2013-12-03 23:44:00,49.3,38.0,29.62,North,0,0.0,0.0,65,0.00,OVC,,0.00,WeatherDisplay:10.37,2013-12-04 05:44:00,
2013-12-03 23:49:00,49.3,38.0,29.62,North,0,0.0,0.0,65,0.00,OVC,,0.00,WeatherDisplay:10.37,2013-12-04 05:49:00,
2013-12-03 23:54:00,49.5,38.2,29.62,North,0,0.0,0.0,65,0.00,OVC,,0.00,WeatherDisplay:10.37,2013-12-04 05:54:00,
2013-12-03 23:59:00,49.5,38.2,29.62,North,0,0.0,0.0,65,0.00,OVC,,0.00,WeatherDisplay:10.37,2013-12-04 05:59:00,